Time,TemperatureF,DewpointF,PressureIn,WindDirection,WindDirectionDegrees,WindSpeedMPH,WindSpeedGustMPH,Humidity,HourlyPrecipIn,Conditions,Clouds,dailyrainin,SoftwareType,DateUTC
2013-03-05 00:00:00,24.7,21.9,29.96,ESE,112,3.0,5.0,89,0.00,,---,0.00,VWS V14.01,2013-03-05 06:00:00,
2013-03-05 00:02:00,24.4,21.4,29.97,ESE,105,0.0,3.0,88,0.00,,,0.00,VWS V14.01,2013-03-05 06:02:00,
2013-03-05 00:05:00,24.7,21.9,29.96,ESE,112,2.0,6.0,89,0.00,,---,0.00,VWS V14.01,2013-03-05 06:05:00,
2013-03-05 00:10:00,24.7,21.9,29.96,East,90,3.0,5.0,89,0.00,,---,0.00,VWS V14.01,2013-03-05 06:10:00,
2013-03-05 00:12:00,24.4,21.4,29.97,ESE,121,2.0,3.0,88,0.00,,,0.00,VWS V14.01,2013-03-05 06:12:00,
2013-03-05 00:15:00,24.7,21.9,29.96,East,90,2.0,5.0,89,0.00,,---,0.00,VWS V14.01,2013-03-05 06:15:00,
2013-03-05 00:17:00,24.4,21.4,29.97,ESE,119,2.0,4.0,88,0.00,,,0.00,VWS V14.01,2013-03-05 06:17:00,
2013-03-05 00:20:00,24.5,21.7,29.96,East,90,2.0,5.0,89,0.00,,---,0.00,VWS V14.01,2013-03-05 06:20:00,
2013-03-05 00:22:00,24.5,21.5,29.97,ESE,102,3.0,4.0,88,0.00,,,0.00,VWS V14.01,2013-03-05 06:22:00,
2013-03-05 00:25:00,24.5,21.7,29.96,ESE,112,1.0,4.0,89,0.00,,---,0.00,VWS V14.01,2013-03-05 06:25:00,
2013-03-05 00:27:00,24.5,21.5,29.97,East,92,5.0,6.0,88,0.00,,,0.00,VWS V14.01,2013-03-05 06:27:00,
2013-03-05 00:30:00,24.5,21.7,29.96,ESE,112,2.0,4.0,89,0.00,,---,0.00,VWS V14.01,2013-03-05 06:30:00,
2013-03-05 00:32:00,24.5,21.5,29.97,ESE,103,3.0,6.0,88,0.00,,,0.00,VWS V14.01,2013-03-05 06:32:00,
2013-03-05 00:35:00,24.5,21.7,29.96,East,90,2.0,5.0,89,0.00,,---,0.00,VWS V14.01,2013-03-05 06:35:00,
2013-03-05 00:37:00,24.5,21.5,29.97,SE,142,5.0,5.0,88,0.00,,,0.00,VWS V14.01,2013-03-05 06:37:00,
2013-03-05 00:40:00,24.4,21.6,29.96,ESE,112,2.0,7.0,89,0.00,,---,0.00,VWS V14.01,2013-03-05 06:40:00,
2013-03-05 00:42:00,24.7,21.7,29.97,East,101,3.0,5.0,88,0.00,,,0.00,VWS V14.01,2013-03-05 06:42:00,
2013-03-05 00:45:00,24.4,21.4,29.96,East,90,1.0,5.0,88,0.00,,---,0.00,VWS V14.01,2013-03-05 06:45:00,
2013-03-05 00:47:00,24.7,21.7,29.97,East,96,1.0,6.0,88,0.00,,,0.00,VWS V14.01,2013-03-05 06:47:00,
2013-03-05 00:50:00,24.4,21.6,29.96,East,90,0.0,0.0,89,0.00,,---,0.00,VWS V14.01,2013-03-05 06:50:00,
2013-03-05 00:52:00,24.7,21.9,29.97,East,92,3.0,6.0,89,0.00,,,0.00,VWS V14.01,2013-03-05 06:52:00,
2013-03-05 00:55:00,24.4,21.6,29.96,East,90,2.0,4.0,89,0.00,,---,0.00,VWS V14.01,2013-03-05 06:55:00,
2013-03-05 00:57:00,24.7,21.9,29.97,ESE,102,4.0,4.0,89,0.00,,,0.00,VWS V14.01,2013-03-05 06:57:00,
2013-03-05 01:00:00,24.4,21.6,29.96,East,90,2.0,5.0,89,0.00,,---,0.00,VWS V14.01,2013-03-05 07:00:00,
2013-03-05 01:02:00,24.7,21.9,29.96,East,92,2.0,5.0,89,0.00,,,0.00,VWS V14.01,2013-03-05 07:02:00,
2013-03-05 01:05:00,24.4,21.4,29.96,East,90,2.0,5.0,88,0.00,,---,0.00,VWS V14.01,2013-03-05 07:05:00,
2013-03-05 01:07:00,24.7,21.9,29.96,East,85,2.0,5.0,89,0.00,,,0.00,VWS V14.01,2013-03-05 07:07:00,
2013-03-05 01:10:00,24.4,21.4,29.96,East,90,1.0,4.0,88,0.00,,---,0.00,VWS V14.01,2013-03-05 07:10:00,
2013-03-05 01:12:00,24.7,21.9,29.96,East,90,1.0,5.0,89,0.00,,,0.00,VWS V14.01,2013-03-05 07:12:00,
2013-03-05 01:15:00,24.4,21.4,29.96,East,90,1.0,4.0,88,0.00,,---,0.00,VWS V14.01,2013-03-05 07:15:00,
2013-03-05 01:17:00,24.7,21.9,29.96,ESE,108,4.0,5.0,89,0.00,,,0.00,VWS V14.01,2013-03-05 07:17:00,
2013-03-05 01:20:00,24.4,21.4,29.96,East,90,2.0,5.0,88,0.00,,---,0.00,VWS V14.01,2013-03-05 07:20:00,
2013-03-05 01:22:00,24.5,21.7,29.96,ESE,102,3.0,5.0,89,0.00,,,0.00,VWS V14.01,2013-03-05 07:22:00,
2013-03-05 01:25:00,24.4,21.4,29.96,East,90,0.0,3.0,88,0.00,,---,0.00,VWS V14.01,2013-03-05 07:25:00,
2013-03-05 01:27:00,24.5,21.7,29.96,ESE,103,2.0,4.0,89,0.00,,,0.00,VWS V14.01,2013-03-05 07:27:00,
2013-03-05 01:30:00,24.4,21.6,29.96,ESE,112,0.0,3.0,89,0.00,,---,0.00,VWS V14.01,2013-03-05 07:30:00,
2013-03-05 01:32:00,24.5,21.7,29.96,ESE,109,3.0,4.0,89,0.00,,,0.00,VWS V14.01,2013-03-05 07:32:00,
2013-03-05 01:35:00,24.4,21.4,29.96,East,90,1.0,5.0,88,0.00,,---,0.00,VWS V14.01,2013-03-05 07:35:00,
2013-03-05 01:37:00,24.5,21.7,29.96,ESE,102,2.0,4.0,89,0.00,,,0.00,VWS V14.01,2013-03-05 07:37:00,
2013-03-05 01:40:00,24.4,21.6,29.96,SE,135,1.0,3.0,89,0.00,,---,0.00,VWS V14.01,2013-03-05 07:40:00,
2013-03-05 01:42:00,24.4,21.6,29.96,ESE,109,2.0,7.0,89,0.00,,,0.00,VWS V14.01,2013-03-05 07:42:00,
2013-03-05 01:45:00,24.4,21.6,29.96,East,90,1.0,4.0,89,0.00,,---,0.00,VWS V14.01,2013-03-05 07:45:00,
2013-03-05 01:47:00,24.4,21.4,29.96,SE,125,0.0,4.0,88,0.00,,,0.00,VWS V14.01,2013-03-05 07:47:00,
2013-03-05 01:50:00,24.4,21.6,29.96,ESE,112,1.0,3.0,89,0.00,,---,0.00,VWS V14.01,2013-03-05 07:50:00,
2013-03-05 01:52:00,24.4,21.6,29.96,ESE,106,0.0,0.0,89,0.00,,,0.00,VWS V14.01,2013-03-05 07:52:00,
2013-03-05 01:55:00,24.2,21.4,29.96,East,90,1.0,3.0,89,0.00,,---,0.00,VWS V14.01,2013-03-05 07:55:00,
2013-03-05 01:57:00,24.4,21.6,29.96,ESE,111,2.0,4.0,89,0.00,,,0.00,VWS V14.01,2013-03-05 07:57:00,
2013-03-05 02:00:00,24.2,21.4,29.95,East,90,1.0,3.0,89,0.00,,---,0.00,VWS V14.01,2013-03-05 08:00:00,
2013-03-05 02:05:00,24.2,21.4,29.95,East,90,2.0,4.0,89,0.00,,---,0.00,VWS V14.01,2013-03-05 08:05:00,
2013-03-05 02:07:00,24.4,21.4,29.96,East,83,0.0,5.0,88,0.00,,,0.00,VWS V14.01,2013-03-05 08:07:00,
2013-03-05 02:10:00,24.2,21.4,29.95,East,90,1.0,3.0,89,0.00,,---,0.00,VWS V14.01,2013-03-05 08:10:00,
2013-03-05 02:12:00,24.4,21.4,29.96,East,92,2.0,4.0,88,0.00,,,0.00,VWS V14.01,2013-03-05 08:12:00,
2013-03-05 02:15:00,24.2,21.4,29.95,East,90,2.0,4.0,89,0.00,,---,0.00,VWS V14.01,2013-03-05 08:15:00,
2013-03-05 02:17:00,24.4,21.4,29.96,ESE,103,2.0,4.0,88,0.00,,,0.00,VWS V14.01,2013-03-05 08:17:00,
2013-03-05 02:20:00,24.2,21.4,29.95,ESE,112,2.0,4.0,89,0.00,,---,0.00,VWS V14.01,2013-03-05 08:20:00,
2013-03-05 02:25:00,24.2,21.4,29.95,East,90,3.0,5.0,89,0.00,,---,0.00,VWS V14.01,2013-03-05 08:25:00,
2013-03-05 02:27:00,24.4,21.4,29.96,ESE,109,0.0,3.0,88,0.00,,,0.00,VWS V14.01,2013-03-05 08:27:00,
2013-03-05 02:30:00,24.2,21.4,29.95,East,90,2.0,4.0,89,0.00,,---,0.00,VWS V14.01,2013-03-05 08:30:00,
2013-03-05 02:35:00,24.2,21.4,29.95,East,90,2.0,5.0,89,0.00,,---,0.00,VWS V14.01,2013-03-05 08:35:00,
2013-03-05 02:37:00,24.4,21.4,29.96,East,101,0.0,5.0,88,0.00,,,0.00,VWS V14.01,2013-03-05 08:37:00,
2013-03-05 02:40:00,24.2,21.4,29.95,East,90,2.0,5.0,89,0.00,,---,0.00,VWS V14.01,2013-03-05 08:40:00,
2013-03-05 02:42:00,24.4,21.6,29.96,East,85,0.0,3.0,89,0.00,,,0.00,VWS V14.01,2013-03-05 08:42:00,
2013-03-05 02:45:00,24.2,21.4,29.94,East,90,2.0,5.0,89,0.00,,---,0.00,VWS V14.01,2013-03-05 08:45:00,
2013-03-05 02:47:00,24.4,21.6,29.96,East,96,0.0,4.0,89,0.00,,,0.00,VWS V14.01,2013-03-05 08:47:00,
2013-03-05 02:50:00,24.2,21.4,29.94,East,90,2.0,5.0,89,0.00,,---,0.00,VWS V14.01,2013-03-05 08:50:00,
2013-03-05 02:52:00,24.4,21.6,29.96,East,96,1.0,3.0,89,0.00,,,0.00,VWS V14.01,2013-03-05 08:52:00,
2013-03-05 02:55:00,24.2,21.4,29.94,East,90,3.0,6.0,89,0.00,,---,0.00,VWS V14.01,2013-03-05 08:55:00,
2013-03-05 02:57:00,24.2,21.4,29.96,East,92,0.0,3.0,89,0.00,,,0.00,VWS V14.01,2013-03-05 08:57:00,
2013-03-05 03:00:00,24.1,21.3,29.94,East,90,3.0,6.0,89,0.00,,---,0.00,VWS V14.01,2013-03-05 09:00:00,
2013-03-05 03:02:00,24.2,21.4,29.95,East,94,1.0,3.0,89,0.00,,,0.00,VWS V14.01,2013-03-05 09:02:00,
2013-03-05 03:05:00,24.1,21.3,29.94,East,90,2.0,4.0,89,0.00,,---,0.00,VWS V14.01,2013-03-05 09:05:00,
2013-03-05 03:07:00,24.2,21.4,29.95,ESE,103,1.0,4.0,89,0.00,,,0.00,VWS V14.01,2013-03-05 09:07:00,
2013-03-05 03:10:00,24.1,21.3,29.94,East,90,2.0,5.0,89,0.00,,---,0.00,VWS V14.01,2013-03-05 09:10:00,
2013-03-05 03:12:00,24.2,21.4,29.95,East,98,0.0,3.0,89,0.00,,,0.00,VWS V14.01,2013-03-05 09:12:00,
2013-03-05 03:15:00,24.1,21.3,29.95,East,90,2.0,6.0,89,0.00,,---,0.00,VWS V14.01,2013-03-05 09:15:00,
2013-03-05 03:17:00,24.2,21.4,29.95,East,95,2.0,4.0,89,0.00,,,0.00,VWS V14.01,2013-03-05 09:17:00,
2013-03-05 03:20:00,24.1,21.3,29.95,East,90,2.0,4.0,89,0.00,,---,0.00,VWS V14.01,2013-03-05 09:20:00,
2013-03-05 03:22:00,24.2,21.4,29.95,East,81,3.0,4.0,89,0.00,,,0.00,VWS V14.01,2013-03-05 09:22:00,
2013-03-05 03:25:00,23.9,21.1,29.95,East,90,2.0,4.0,89,0.00,,---,0.00,VWS V14.01,2013-03-05 09:25:00,
2013-03-05 03:27:00,24.2,21.4,29.95,East,88,1.0,5.0,89,0.00,,,0.00,VWS V14.01,2013-03-05 09:27:00,
2013-03-05 03:30:00,23.9,21.1,29.95,East,90,2.0,4.0,89,0.00,,---,0.00,VWS V14.01,2013-03-05 09:30:00,
2013-03-05 03:35:00,23.9,21.1,29.95,East,90,2.0,5.0,89,0.00,,---,0.00,VWS V14.01,2013-03-05 09:35:00,
2013-03-05 03:37:00,24.2,21.4,29.95,East,92,4.0,5.0,89,0.00,,,0.00,VWS V14.01,2013-03-05 09:37:00,
2013-03-05 03:40:00,23.9,21.1,29.95,East,90,2.0,4.0,89,0.00,,---,0.00,VWS V14.01,2013-03-05 09:40:00,
2013-03-05 03:42:00,24.2,21.4,29.95,East,86,1.0,5.0,89,0.00,,,0.00,VWS V14.01,2013-03-05 09:42:00,
2013-03-05 03:45:00,23.9,21.1,29.96,ENE,68,2.0,4.0,89,0.00,,---,0.00,VWS V14.01,2013-03-05 09:45:00,
2013-03-05 03:50:00,23.9,21.1,29.96,East,90,2.0,4.0,89,0.00,,---,0.00,VWS V14.01,2013-03-05 09:50:00,
2013-03-05 03:52:00,24.2,21.4,29.94,ENE,71,3.0,5.0,89,0.00,,,0.00,VWS V14.01,2013-03-05 09:52:00,
2013-03-05 03:55:00,23.8,21.0,29.96,East,90,3.0,6.0,89,0.00,,---,0.00,VWS V14.01,2013-03-05 09:55:00,
2013-03-05 03:57:00,24.2,21.4,29.94,East,87,2.0,6.0,89,0.00,,,0.00,VWS V14.01,2013-03-05 09:57:00,
2013-03-05 04:00:00,23.8,21.0,29.96,East,90,3.0,6.0,89,0.00,,---,0.00,VWS V14.01,2013-03-05 10:00:00,
2013-03-05 04:05:00,23.8,21.0,29.96,East,90,2.0,5.0,89,0.00,,---,0.00,VWS V14.01,2013-03-05 10:05:00,
2013-03-05 04:07:00,24.1,21.3,29.94,East,82,2.0,4.0,89,0.00,,,0.00,VWS V14.01,2013-03-05 10:07:00,
2013-03-05 04:10:00,23.8,21.0,29.96,East,90,2.0,4.0,89,0.00,,---,0.00,VWS V14.01,2013-03-05 10:10:00,
2013-03-05 04:12:00,24.1,21.3,29.94,ENE,76,3.0,5.0,89,0.00,,,0.00,VWS V14.01,2013-03-05 10:12:00,
2013-03-05 04:15:00,23.8,21.0,29.96,East,90,2.0,5.0,89,0.00,,---,0.00,VWS V14.01,2013-03-05 10:15:00,
2013-03-05 04:17:00,24.1,21.3,29.95,East,94,3.0,6.0,89,0.00,,,0.00,VWS V14.01,2013-03-05 10:17:00,
2013-03-05 04:20:00,23.8,21.0,29.96,ENE,68,2.0,5.0,89,0.00,,---,0.00,VWS V14.01,2013-03-05 10:20:00,
2013-03-05 04:22:00,24.1,21.3,29.95,East,98,0.0,4.0,89,0.00,,,0.00,VWS V14.01,2013-03-05 10:22:00,
2013-03-05 04:25:00,23.8,21.0,29.96,East,90,3.0,5.0,89,0.00,,---,0.00,VWS V14.01,2013-03-05 10:25:00,
2013-03-05 04:27:00,23.9,21.1,29.95,ENE,78,3.0,4.0,89,0.00,,,0.00,VWS V14.01,2013-03-05 10:27:00,
2013-03-05 04:30:00,23.8,21.0,29.96,ESE,112,1.0,4.0,89,0.00,,---,0.00,VWS V14.01,2013-03-05 10:30:00,
2013-03-05 04:32:00,23.9,21.1,29.95,East,90,2.0,4.0,89,0.00,,,0.00,VWS V14.01,2013-03-05 10:32:00,
2013-03-05 04:35:00,23.6,20.8,29.96,East,90,2.0,5.0,89,0.00,,---,0.00,VWS V14.01,2013-03-05 10:35:00,
2013-03-05 04:37:00,23.9,21.1,29.95,East,86,3.0,4.0,89,0.00,,,0.00,VWS V14.01,2013-03-05 10:37:00,
2013-03-05 04:40:00,23.6,20.8,29.96,ENE,68,3.0,5.0,89,0.00,,---,0.00,VWS V14.01,2013-03-05 10:40:00,
2013-03-05 04:45:00,23.6,20.8,29.96,East,90,2.0,5.0,89,0.00,,---,0.00,VWS V14.01,2013-03-05 10:45:00,
2013-03-05 04:47:00,23.9,21.1,29.96,East,86,3.0,4.0,89,0.00,,,0.00,VWS V14.01,2013-03-05 10:47:00,
2013-03-05 04:50:00,23.6,20.8,29.96,East,90,1.0,3.0,89,0.00,,---,0.00,VWS V14.01,2013-03-05 10:50:00,
2013-03-05 04:55:00,23.6,20.8,29.96,East,90,3.0,5.0,89,0.00,,---,0.00,VWS V14.01,2013-03-05 10:55:00,
2013-03-05 04:57:00,23.8,21.0,29.96,East,86,3.0,6.0,89,0.00,,,0.00,VWS V14.01,2013-03-05 10:57:00,
2013-03-05 05:00:00,23.6,20.8,29.96,East,90,3.0,5.0,89,0.00,,---,0.00,VWS V14.01,2013-03-05 11:00:00,
2013-03-05 05:02:00,23.8,21.0,29.96,ESE,102,4.0,6.0,89,0.00,,,0.00,VWS V14.01,2013-03-05 11:02:00,
2013-03-05 05:05:00,23.6,20.8,29.96,ENE,68,2.0,4.0,89,0.00,,---,0.00,VWS V14.01,2013-03-05 11:05:00,
2013-03-05 05:07:00,23.8,21.0,29.96,East,91,2.0,5.0,89,0.00,,,0.00,VWS V14.01,2013-03-05 11:07:00,
2013-03-05 05:10:00,23.6,20.8,29.96,East,90,2.0,4.0,89,0.00,,---,0.00,VWS V14.01,2013-03-05 11:10:00,
2013-03-05 05:12:00,23.8,21.0,29.96,East,94,2.0,4.0,89,0.00,,,0.00,VWS V14.01,2013-03-05 11:12:00,
2013-03-05 05:15:00,23.6,20.8,29.97,East,90,2.0,5.0,89,0.00,,---,0.00,VWS V14.01,2013-03-05 11:15:00,
2013-03-05 05:17:00,23.8,21.0,29.96,ENE,76,2.0,5.0,89,0.00,,,0.00,VWS V14.01,2013-03-05 11:17:00,
2013-03-05 05:20:00,23.6,20.8,29.97,East,90,2.0,5.0,89,0.00,,---,0.00,VWS V14.01,2013-03-05 11:20:00,
2013-03-05 05:22:00,23.8,21.0,29.96,East,86,3.0,4.0,89,0.00,,,0.00,VWS V14.01,2013-03-05 11:22:00,
2013-03-05 05:25:00,23.6,20.8,29.97,ENE,68,3.0,5.0,89,0.00,,---,0.00,VWS V14.01,2013-03-05 11:25:00,
2013-03-05 05:27:00,23.8,21.0,29.96,East,80,1.0,5.0,89,0.00,,,0.00,VWS V14.01,2013-03-05 11:27:00,
2013-03-05 05:30:00,23.6,20.8,29.97,East,90,2.0,4.0,89,0.00,,---,0.00,VWS V14.01,2013-03-05 11:30:00,
2013-03-05 05:35:00,23.6,20.8,29.97,East,90,2.0,5.0,89,0.00,,---,0.00,VWS V14.01,2013-03-05 11:35:00,
2013-03-05 05:37:00,23.6,20.8,29.96,East,87,3.0,5.0,89,0.00,,,0.00,VWS V14.01,2013-03-05 11:37:00,
2013-03-05 05:40:00,23.6,20.8,29.97,East,90,2.0,4.0,89,0.00,,---,0.00,VWS V14.01,2013-03-05 11:40:00,
2013-03-05 05:42:00,23.6,20.8,29.96,East,93,2.0,5.0,89,0.00,,,0.00,VWS V14.01,2013-03-05 11:42:00,
2013-03-05 05:45:00,23.6,20.8,29.97,ENE,68,2.0,6.0,89,0.00,,---,0.00,VWS V14.01,2013-03-05 11:45:00,
2013-03-05 05:47:00,23.6,20.8,29.96,East,85,1.0,4.0,89,0.00,,,0.00,VWS V14.01,2013-03-05 11:47:00,
2013-03-05 05:50:00,23.6,20.8,29.97,East,90,1.0,4.0,89,0.00,,---,0.00,VWS V14.01,2013-03-05 11:50:00,
2013-03-05 05:52:00,23.6,20.8,29.96,ENE,65,2.0,3.0,89,0.00,,,0.00,VWS V14.01,2013-03-05 11:52:00,
2013-03-05 05:55:00,23.6,20.8,29.97,East,90,2.0,4.0,89,0.00,,---,0.00,VWS V14.01,2013-03-05 11:55:00,
2013-03-05 05:57:00,23.6,20.8,29.96,East,93,2.0,5.0,89,0.00,,,0.00,VWS V14.01,2013-03-05 11:57:00,
2013-03-05 06:00:00,23.6,20.8,29.97,ENE,68,2.0,3.0,89,0.00,,---,0.00,VWS V14.01,2013-03-05 12:00:00,
2013-03-05 06:05:00,23.6,20.8,29.97,ENE,68,2.0,4.0,89,0.00,,---,0.00,VWS V14.01,2013-03-05 12:05:00,
2013-03-05 06:07:00,23.6,20.8,29.96,ENE,69,2.0,4.0,89,0.00,,,0.00,VWS V14.01,2013-03-05 12:07:00,
2013-03-05 06:10:00,23.6,20.8,29.97,ENE,68,2.0,3.0,89,0.00,,---,0.00,VWS V14.01,2013-03-05 12:10:00,
2013-03-05 06:12:00,23.6,20.8,29.96,East,85,1.0,4.0,89,0.00,,,0.00,VWS V14.01,2013-03-05 12:12:00,
2013-03-05 06:15:00,23.6,20.8,29.98,ENE,68,2.0,5.0,89,0.00,,---,0.00,VWS V14.01,2013-03-05 12:15:00,
2013-03-05 06:20:00,23.8,21.0,29.98,East,90,2.0,4.0,89,0.00,,---,0.00,VWS V14.01,2013-03-05 12:20:00,
2013-03-05 06:22:00,23.6,20.8,29.97,ENE,63,4.0,5.0,89,0.00,,,0.00,VWS V14.01,2013-03-05 12:22:00,
2013-03-05 06:25:00,23.8,21.0,29.98,East,90,2.0,4.0,89,0.00,,---,0.00,VWS V14.01,2013-03-05 12:25:00,
2013-03-05 06:30:00,23.8,21.0,29.98,ENE,68,2.0,4.0,89,0.00,,---,0.00,VWS V14.01,2013-03-05 12:30:00,
2013-03-05 06:32:00,23.6,20.8,29.97,East,88,2.0,4.0,89,0.00,,,0.00,VWS V14.01,2013-03-05 12:32:00,
2013-03-05 06:35:00,23.8,21.0,29.98,ENE,68,2.0,5.0,89,0.00,,---,0.00,VWS V14.01,2013-03-05 12:35:00,
2013-03-05 06:37:00,23.6,20.8,29.97,East,82,1.0,5.0,89,0.00,,,0.00,VWS V14.01,2013-03-05 12:37:00,
2013-03-05 06:40:00,23.8,21.0,29.98,ENE,68,2.0,5.0,89,0.00,,---,0.00,VWS V14.01,2013-03-05 12:40:00,
2013-03-05 06:42:00,23.6,20.8,29.97,East,94,3.0,4.0,89,0.00,,,0.00,VWS V14.01,2013-03-05 12:42:00,
2013-03-05 06:45:00,23.8,21.0,29.99,ENE,68,2.0,7.0,89,0.00,,---,0.00,VWS V14.01,2013-03-05 12:45:00,
2013-03-05 06:50:00,23.9,21.1,29.99,ENE,68,3.0,6.0,89,0.00,,---,0.00,VWS V14.01,2013-03-05 12:50:00,
2013-03-05 06:52:00,23.6,20.8,29.97,NE,55,3.0,4.0,89,0.00,,,0.00,VWS V14.01,2013-03-05 12:52:00,
2013-03-05 06:55:00,23.9,21.1,29.99,ENE,68,3.0,5.0,89,0.00,,---,0.00,VWS V14.01,2013-03-05 12:55:00,
2013-03-05 06:57:00,23.6,20.8,29.97,ENE,74,2.0,4.0,89,0.00,,,0.00,VWS V14.01,2013-03-05 12:57:00,
2013-03-05 07:00:00,23.9,21.1,29.99,East,90,2.0,5.0,89,0.00,,---,0.00,VWS V14.01,2013-03-05 13:00:00,
2013-03-05 07:05:00,24.1,21.3,29.99,ENE,68,2.0,6.0,89,0.00,,---,0.00,VWS V14.01,2013-03-05 13:05:00,
2013-03-05 07:07:00,23.6,20.8,29.97,ENE,69,2.0,4.0,89,0.00,,,0.00,VWS V14.01,2013-03-05 13:07:00,
2013-03-05 07:10:00,24.1,21.3,29.99,ENE,68,1.0,4.0,89,0.00,,---,0.00,VWS V14.01,2013-03-05 13:10:00,
2013-03-05 07:15:00,24.2,21.4,29.99,ENE,68,2.0,5.0,89,0.00,,---,0.00,VWS V14.01,2013-03-05 13:15:00,
2013-03-05 07:17:00,23.6,20.8,29.98,East,89,2.0,5.0,89,0.00,,,0.00,VWS V14.01,2013-03-05 13:17:00,
2013-03-05 07:20:00,24.2,21.4,29.99,ENE,68,3.0,6.0,89,0.00,,---,0.00,VWS V14.01,2013-03-05 13:20:00,
2013-03-05 07:22:00,23.8,21.0,29.98,East,81,2.0,4.0,89,0.00,,,0.00,VWS V14.01,2013-03-05 13:22:00,
2013-03-05 07:25:00,24.2,21.4,29.99,ENE,68,3.0,6.0,89,0.00,,---,0.00,VWS V14.01,2013-03-05 13:25:00,
2013-03-05 07:30:00,24.4,21.6,30.00,NE,45,2.0,4.0,89,0.00,,---,0.00,VWS V14.01,2013-03-05 13:30:00,
2013-03-05 07:32:00,23.8,21.0,29.98,East,80,3.0,4.0,89,0.00,,,0.00,VWS V14.01,2013-03-05 13:32:00,
2013-03-05 07:35:00,24.4,21.6,30.00,ENE,68,3.0,6.0,89,0.00,,---,0.00,VWS V14.01,2013-03-05 13:35:00,
2013-03-05 07:37:00,23.8,21.0,29.98,ENE,74,1.0,5.0,89,0.00,,,0.00,VWS V14.01,2013-03-05 13:37:00,
2013-03-05 07:40:00,24.4,21.6,30.00,ENE,68,3.0,6.0,89,0.00,,---,0.00,VWS V14.01,2013-03-05 13:40:00,
2013-03-05 07:42:00,23.8,21.0,29.98,ENE,77,1.0,5.0,89,0.00,,,0.00,VWS V14.01,2013-03-05 13:42:00,
2013-03-05 07:45:00,24.4,21.6,30.00,ENE,68,3.0,6.0,89,0.00,,---,0.00,VWS V14.01,2013-03-05 13:45:00,
2013-03-05 07:47:00,23.8,21.0,29.99,ENE,63,2.0,6.0,89,0.00,,,0.00,VWS V14.01,2013-03-05 13:47:00,
2013-03-05 07:50:00,24.5,21.7,30.00,ENE,68,2.0,7.0,89,0.00,,---,0.00,VWS V14.01,2013-03-05 13:50:00,
2013-03-05 07:52:00,23.9,21.1,29.99,East,84,2.0,6.0,89,0.00,,,0.00,VWS V14.01,2013-03-05 13:52:00,
2013-03-05 07:55:00,24.5,21.7,30.00,ENE,68,4.0,10.0,89,0.00,,---,0.00,VWS V14.01,2013-03-05 13:55:00,
2013-03-05 07:57:00,23.9,21.1,29.99,East,96,3.0,5.0,89,0.00,,,0.00,VWS V14.01,2013-03-05 13:57:00,
2013-03-05 08:00:00,24.5,21.7,30.00,NE,45,3.0,7.0,89,0.00,,---,0.00,VWS V14.01,2013-03-05 14:00:00,
2013-03-05 08:05:00,24.7,21.9,30.00,ENE,68,3.0,7.0,89,0.00,,---,0.00,VWS V14.01,2013-03-05 14:05:00,
2013-03-05 08:07:00,24.1,21.3,29.99,ENE,62,0.0,5.0,89,0.00,,,0.00,VWS V14.01,2013-03-05 14:07:00,
2013-03-05 08:10:00,24.7,21.9,30.00,ENE,68,4.0,7.0,89,0.00,,---,0.00,VWS V14.01,2013-03-05 14:10:00,
2013-03-05 08:12:00,24.1,21.3,29.99,ENE,74,0.0,4.0,89,0.00,,,0.00,VWS V14.01,2013-03-05 14:12:00,
2013-03-05 08:15:00,24.7,21.9,30.00,ENE,68,2.0,7.0,89,0.00,,---,0.00,VWS V14.01,2013-03-05 14:15:00,
2013-03-05 08:17:00,24.2,21.4,29.99,ENE,74,4.0,5.0,89,0.00,,,0.00,VWS V14.01,2013-03-05 14:17:00,
2013-03-05 08:20:00,24.7,21.9,30.00,ENE,68,4.0,10.0,89,0.00,,---,0.00,VWS V14.01,2013-03-05 14:20:00,
2013-03-05 08:22:00,24.2,21.4,29.99,ENE,76,3.0,6.0,89,0.00,,,0.00,VWS V14.01,2013-03-05 14:22:00,
2013-03-05 08:25:00,24.7,21.7,30.00,ENE,68,3.0,6.0,88,0.00,,---,0.00,VWS V14.01,2013-03-05 14:25:00,
2013-03-05 08:27:00,24.2,21.4,29.99,ENE,69,2.0,6.0,89,0.00,,,0.00,VWS V14.01,2013-03-05 14:27:00,
2013-03-05 08:30:00,24.7,21.7,30.01,ENE,68,3.0,7.0,88,0.00,,---,0.00,VWS V14.01,2013-03-05 14:30:00,
2013-03-05 08:32:00,24.4,21.6,30.00,ENE,60,1.0,4.0,89,0.00,,,0.00,VWS V14.01,2013-03-05 14:32:00,
2013-03-05 08:35:00,25.0,22.2,30.01,ENE,68,1.0,3.0,89,0.00,,---,0.00,VWS V14.01,2013-03-05 14:35:00,
2013-03-05 08:37:00,24.4,21.6,30.00,NE,47,3.0,6.0,89,0.00,,,0.00,VWS V14.01,2013-03-05 14:37:00,
2013-03-05 08:40:00,25.1,22.0,30.01,NE,45,2.0,6.0,88,0.00,,---,0.00,VWS V14.01,2013-03-05 14:40:00,
2013-03-05 08:45:00,25.0,22.0,30.02,NE,45,4.0,9.0,88,0.00,,---,0.00,VWS V14.01,2013-03-05 14:45:00,
2013-03-05 08:47:00,24.4,21.6,30.00,ENE,64,2.0,6.0,89,0.00,,,0.00,VWS V14.01,2013-03-05 14:47:00,
2013-03-05 08:50:00,25.0,22.0,30.02,ENE,68,3.0,7.0,88,0.00,,---,0.00,VWS V14.01,2013-03-05 14:50:00,
2013-03-05 08:55:00,25.0,22.0,30.02,ENE,68,3.0,7.0,88,0.00,,---,0.00,VWS V14.01,2013-03-05 14:55:00,
2013-03-05 08:57:00,24.5,21.7,30.00,NE,49,3.0,10.0,89,0.00,,,0.00,VWS V14.01,2013-03-05 14:57:00,
2013-03-05 09:00:00,25.1,22.0,30.02,ENE,68,3.0,7.0,88,0.00,,---,0.00,VWS V14.01,2013-03-05 15:00:00,
2013-03-05 09:05:00,25.3,22.0,30.02,NE,45,3.0,7.0,87,0.00,,---,0.00,VWS V14.01,2013-03-05 15:05:00,
2013-03-05 09:07:00,24.7,21.9,30.00,NE,46,3.0,7.0,89,0.00,,,0.00,VWS V14.01,2013-03-05 15:07:00,
2013-03-05 09:10:00,25.3,22.0,30.02,NE,45,3.0,7.0,87,0.00,,---,0.00,VWS V14.01,2013-03-05 15:10:00,
2013-03-05 09:12:00,24.7,21.9,30.00,ENE,65,4.0,7.0,89,0.00,,,0.00,VWS V14.01,2013-03-05 15:12:00,
2013-03-05 09:15:00,25.3,21.7,30.03,ENE,68,4.0,7.0,86,0.00,,---,0.00,VWS V14.01,2013-03-05 15:15:00,
2013-03-05 09:17:00,24.7,21.9,30.00,East,82,2.0,7.0,89,0.00,,,0.00,VWS V14.01,2013-03-05 15:17:00,
2013-03-05 09:20:00,25.1,21.5,30.03,ENE,68,5.0,10.0,86,0.00,,---,0.00,VWS V14.01,2013-03-05 15:20:00,
2013-03-05 09:22:00,24.7,21.9,30.00,NE,51,3.0,10.0,89,0.00,,,0.00,VWS V14.01,2013-03-05 15:22:00,
2013-03-05 09:25:00,25.3,21.7,30.03,NE,45,4.0,10.0,86,0.00,,---,0.00,VWS V14.01,2013-03-05 15:25:00,
2013-03-05 09:27:00,24.7,21.7,30.00,ENE,64,2.0,6.0,88,0.00,,,0.00,VWS V14.01,2013-03-05 15:27:00,
2013-03-05 09:30:00,25.3,21.7,30.04,NE,45,3.0,7.0,86,0.00,,---,0.00,VWS V14.01,2013-03-05 15:30:00,
2013-03-05 09:35:00,25.3,21.7,30.04,ENE,68,4.0,13.0,86,0.00,,---,0.00,VWS V14.01,2013-03-05 15:35:00,
2013-03-05 09:37:00,25.0,22.2,30.01,NE,55,1.0,3.0,89,0.00,,,0.00,VWS V14.01,2013-03-05 15:37:00,
2013-03-05 09:40:00,25.4,21.8,30.04,NE,45,4.0,11.0,86,0.00,,---,0.00,VWS V14.01,2013-03-05 15:40:00,
2013-03-05 09:42:00,25.1,22.0,30.01,NE,48,4.0,6.0,88,0.00,,,0.00,VWS V14.01,2013-03-05 15:42:00,
2013-03-05 09:45:00,25.4,21.8,30.04,ENE,68,4.0,9.0,86,0.00,,---,0.00,VWS V14.01,2013-03-05 15:45:00,
2013-03-05 09:50:00,25.6,22.0,30.04,ENE,68,2.0,7.0,86,0.00,,---,0.00,VWS V14.01,2013-03-05 15:50:00,
2013-03-05 09:52:00,25.0,22.0,30.02,NE,38,4.0,7.0,88,0.00,,,0.00,VWS V14.01,2013-03-05 15:52:00,
2013-03-05 09:55:00,25.7,22.1,30.04,NE,45,3.0,6.0,86,0.00,,---,0.00,VWS V14.01,2013-03-05 15:55:00,
2013-03-05 09:57:00,25.0,22.0,30.02,ENE,71,2.0,7.0,88,0.00,,,0.00,VWS V14.01,2013-03-05 15:57:00,
2013-03-05 10:00:00,25.8,22.2,30.04,ENE,68,2.0,4.0,86,0.00,,---,0.00,VWS V14.01,2013-03-05 16:00:00,
2013-03-05 10:05:00,25.8,21.9,30.04,NE,45,3.0,6.0,85,0.00,,---,0.00,VWS V14.01,2013-03-05 16:05:00,
2013-03-05 10:07:00,25.3,22.0,30.02,NE,44,3.0,7.0,87,0.00,,,0.00,VWS V14.01,2013-03-05 16:07:00,
2013-03-05 10:10:00,25.8,21.9,30.04,NE,45,3.0,7.0,85,0.00,,---,0.00,VWS V14.01,2013-03-05 16:10:00,
2013-03-05 10:12:00,25.3,22.0,30.02,ENE,71,4.0,7.0,87,0.00,,,0.00,VWS V14.01,2013-03-05 16:12:00,
2013-03-05 10:15:00,26.1,22.2,30.05,NE,45,2.0,4.0,85,0.00,,---,0.00,VWS V14.01,2013-03-05 16:15:00,
2013-03-05 10:17:00,25.3,21.7,30.03,NE,53,3.0,7.0,86,0.00,,,0.00,VWS V14.01,2013-03-05 16:17:00,
2013-03-05 10:20:00,26.3,22.4,30.05,NE,45,2.0,5.0,85,0.00,,---,0.00,VWS V14.01,2013-03-05 16:20:00,
2013-03-05 10:22:00,25.1,21.5,30.03,ENE,73,7.0,10.0,86,0.00,,,0.00,VWS V14.01,2013-03-05 16:22:00,
2013-03-05 10:25:00,26.3,22.4,30.05,NE,45,1.0,4.0,85,0.00,,---,0.00,VWS V14.01,2013-03-05 16:25:00,
2013-03-05 10:30:00,26.4,22.5,30.05,NE,45,2.0,5.0,85,0.00,,---,0.00,VWS V14.01,2013-03-05 16:30:00,
2013-03-05 10:32:00,25.3,21.7,30.04,NE,55,5.0,6.0,86,0.00,,,0.00,VWS V14.01,2013-03-05 16:32:00,
2013-03-05 10:35:00,26.4,22.5,30.05,NNE,22,3.0,6.0,85,0.00,,---,0.00,VWS V14.01,2013-03-05 16:35:00,
2013-03-05 10:37:00,25.3,21.7,30.04,NE,51,2.0,13.0,86,0.00,,,0.00,VWS V14.01,2013-03-05 16:37:00,
2013-03-05 10:40:00,26.4,22.5,30.05,NE,45,3.0,6.0,85,0.00,,---,0.00,VWS V14.01,2013-03-05 16:40:00,
2013-03-05 10:45:00,26.6,22.7,30.05,NNE,22,2.0,4.0,85,0.00,,---,0.00,VWS V14.01,2013-03-05 16:45:00,
2013-03-05 10:47:00,25.4,21.8,30.04,ENE,73,3.0,9.0,86,0.00,,,0.00,VWS V14.01,2013-03-05 16:47:00,
2013-03-05 10:50:00,26.7,22.8,30.05,NE,45,1.0,4.0,85,0.00,,---,0.00,VWS V14.01,2013-03-05 16:50:00,
2013-03-05 10:52:00,25.6,22.0,30.04,North,355,3.0,7.0,86,0.00,,,0.00,VWS V14.01,2013-03-05 16:52:00,
2013-03-05 10:55:00,27.0,23.1,30.05,NNE,22,2.0,5.0,85,0.00,,---,0.00,VWS V14.01,2013-03-05 16:55:00,
2013-03-05 10:57:00,25.7,22.1,30.04,ENE,59,3.0,6.0,86,0.00,,,0.00,VWS V14.01,2013-03-05 16:57:00,
2013-03-05 11:00:00,27.2,23.3,30.05,NE,45,2.0,6.0,85,0.00,,---,0.00,VWS V14.01,2013-03-05 17:00:00,
2013-03-05 11:02:00,25.8,22.2,30.04,NE,49,0.0,4.0,86,0.00,,,0.00,VWS V14.01,2013-03-05 17:02:00,
2013-03-05 11:05:00,27.2,23.3,30.05,ENE,68,1.0,6.0,85,0.00,,---,0.00,VWS V14.01,2013-03-05 17:05:00,
2013-03-05 11:07:00,25.8,21.9,30.04,NE,44,4.0,6.0,85,0.00,,,0.00,VWS V14.01,2013-03-05 17:07:00,
2013-03-05 11:10:00,27.3,23.4,30.05,ENE,68,2.0,6.0,85,0.00,,---,0.00,VWS V14.01,2013-03-05 17:10:00,
2013-03-05 11:12:00,25.8,21.9,30.04,ENE,61,3.0,6.0,85,0.00,,,0.00,VWS V14.01,2013-03-05 17:12:00,
2013-03-05 11:15:00,27.3,23.1,30.05,NE,45,2.0,6.0,84,0.00,,---,0.00,VWS V14.01,2013-03-05 17:15:00,
2013-03-05 11:17:00,26.1,22.2,30.05,NE,56,3.0,4.0,85,0.00,,,0.00,VWS V14.01,2013-03-05 17:17:00,
2013-03-05 11:20:00,27.5,23.6,30.05,NE,45,2.0,5.0,85,0.00,,---,0.00,VWS V14.01,2013-03-05 17:20:00,
2013-03-05 11:22:00,26.3,22.4,30.05,NE,51,3.0,5.0,85,0.00,,,0.00,VWS V14.01,2013-03-05 17:22:00,
2013-03-05 11:25:00,27.6,23.4,30.05,NE,45,3.0,5.0,84,0.00,,---,0.00,VWS V14.01,2013-03-05 17:25:00,
2013-03-05 11:30:00,27.6,23.4,30.05,ENE,68,2.0,5.0,84,0.00,,---,0.00,VWS V14.01,2013-03-05 17:30:00,
2013-03-05 11:32:00,26.4,22.5,30.05,North,5,5.0,5.0,85,0.00,,,0.00,VWS V14.01,2013-03-05 17:32:00,
2013-03-05 11:35:00,27.9,23.7,30.05,NE,45,2.0,6.0,84,0.00,,---,0.00,VWS V14.01,2013-03-05 17:35:00,
2013-03-05 11:37:00,26.4,22.5,30.05,ENE,58,3.0,6.0,85,0.00,,,0.00,VWS V14.01,2013-03-05 17:37:00,
2013-03-05 11:40:00,27.8,23.3,30.05,NNE,22,3.0,7.0,83,0.00,,---,0.00,VWS V14.01,2013-03-05 17:40:00,
2013-03-05 11:42:00,26.4,22.5,30.05,NE,51,2.0,6.0,85,0.00,,,0.00,VWS V14.01,2013-03-05 17:42:00,
2013-03-05 11:45:00,27.8,23.3,30.05,NE,45,2.0,5.0,83,0.00,,---,0.00,VWS V14.01,2013-03-05 17:45:00,
2013-03-05 11:47:00,26.6,22.7,30.05,North,9,2.0,3.0,85,0.00,,,0.00,VWS V14.01,2013-03-05 17:47:00,
2013-03-05 11:50:00,28.2,23.7,30.05,NE,45,1.0,3.0,83,0.00,,---,0.00,VWS V14.01,2013-03-05 17:50:00,
2013-03-05 11:52:00,26.7,22.8,30.05,North,5,0.0,4.0,85,0.00,,,0.00,VWS V14.01,2013-03-05 17:52:00,
2013-03-05 11:55:00,28.2,23.7,30.05,NNE,22,3.0,7.0,83,0.00,,---,0.00,VWS V14.01,2013-03-05 17:55:00,
2013-03-05 11:57:00,27.0,23.1,30.05,NNE,17,0.0,5.0,85,0.00,,,0.00,VWS V14.01,2013-03-05 17:57:00,
2013-03-05 12:00:00,28.1,23.6,30.05,NE,45,4.0,8.0,83,0.00,,---,0.00,VWS V14.01,2013-03-05 18:00:00,
2013-03-05 12:02:00,27.2,23.3,30.05,NE,53,3.0,6.0,85,0.00,,,0.00,VWS V14.01,2013-03-05 18:02:00,
2013-03-05 12:05:00,28.2,24.0,30.05,NE,45,2.0,6.0,84,0.00,,---,0.00,VWS V14.01,2013-03-05 18:05:00,
2013-03-05 12:07:00,27.2,23.3,30.05,NNE,17,2.0,6.0,85,0.00,,,0.00,VWS V14.01,2013-03-05 18:07:00,
2013-03-05 12:10:00,28.4,24.2,30.05,NE,45,3.0,6.0,84,0.00,,---,0.00,VWS V14.01,2013-03-05 18:10:00,
2013-03-05 12:12:00,27.3,23.4,30.05,NNE,22,3.0,6.0,85,0.00,,,0.00,VWS V14.01,2013-03-05 18:12:00,
2013-03-05 12:15:00,28.5,24.3,30.05,NE,45,3.0,6.0,84,0.00,,---,0.00,VWS V14.01,2013-03-05 18:15:00,
2013-03-05 12:17:00,27.3,23.1,30.05,NE,45,4.0,6.0,84,0.00,,,0.00,VWS V14.01,2013-03-05 18:17:00,
2013-03-05 12:20:00,28.7,24.5,30.05,NE,45,2.0,7.0,84,0.00,,---,0.00,VWS V14.01,2013-03-05 18:20:00,
2013-03-05 12:22:00,27.5,23.6,30.05,NE,50,4.0,5.0,85,0.00,,,0.00,VWS V14.01,2013-03-05 18:22:00,
2013-03-05 12:25:00,29.0,24.8,30.05,NE,45,2.0,5.0,84,0.00,,---,0.00,VWS V14.01,2013-03-05 18:25:00,
2013-03-05 12:27:00,27.6,23.4,30.05,NNE,14,5.0,5.0,84,0.00,,,0.00,VWS V14.01,2013-03-05 18:27:00,
2013-03-05 12:30:00,28.8,24.3,30.05,NE,45,4.0,7.0,83,0.00,,---,0.00,VWS V14.01,2013-03-05 18:30:00,
2013-03-05 12:32:00,27.6,23.4,30.05,ENE,67,3.0,5.0,84,0.00,,,0.00,VWS V14.01,2013-03-05 18:32:00,
2013-03-05 12:35:00,28.7,24.2,30.05,NE,45,4.0,8.0,83,0.00,,---,0.00,VWS V14.01,2013-03-05 18:35:00,
2013-03-05 12:40:00,28.7,24.2,30.05,NE,45,4.0,10.0,83,0.00,,---,0.00,VWS V14.01,2013-03-05 18:40:00,
2013-03-05 12:42:00,27.8,23.3,30.05,NNE,18,1.0,7.0,83,0.00,,,0.00,VWS V14.01,2013-03-05 18:42:00,
2013-03-05 12:45:00,28.8,24.3,30.06,NE,45,3.0,5.0,83,0.00,,---,0.00,VWS V14.01,2013-03-05 18:45:00,
2013-03-05 12:47:00,27.8,23.3,30.05,NE,38,1.0,5.0,83,0.00,,,0.00,VWS V14.01,2013-03-05 18:47:00,
2013-03-05 12:50:00,29.3,24.8,30.06,ENE,68,2.0,10.0,83,0.00,,---,0.00,VWS V14.01,2013-03-05 18:50:00,
2013-03-05 12:52:00,28.2,23.7,30.05,NE,44,0.0,3.0,83,0.00,,,0.00,VWS V14.01,2013-03-05 18:52:00,
2013-03-05 12:55:00,29.1,24.3,30.06,NE,45,4.0,7.0,82,0.00,,---,0.00,VWS V14.01,2013-03-05 18:55:00,
2013-03-05 12:57:00,28.2,23.7,30.05,NNW,344,4.0,7.0,83,0.00,,,0.00,VWS V14.01,2013-03-05 18:57:00,
2013-03-05 13:00:00,29.3,24.5,30.06,NE,45,3.0,9.0,82,0.00,,---,0.00,VWS V14.01,2013-03-05 19:00:00,
2013-03-05 13:05:00,29.4,24.6,30.06,NE,45,2.0,7.0,82,0.00,,---,0.00,VWS V14.01,2013-03-05 19:05:00,
2013-03-05 13:07:00,28.2,24.0,30.05,NE,54,1.0,5.0,84,0.00,,,0.00,VWS V14.01,2013-03-05 19:07:00,
2013-03-05 13:10:00,29.3,24.5,30.06,NE,45,4.0,10.0,82,0.00,,---,0.00,VWS V14.01,2013-03-05 19:10:00,
2013-03-05 13:12:00,28.4,24.2,30.05,NE,51,3.0,6.0,84,0.00,,,0.00,VWS V14.01,2013-03-05 19:12:00,
2013-03-05 13:15:00,28.7,23.6,30.06,NNE,22,6.0,15.0,81,0.00,,---,0.00,VWS V14.01,2013-03-05 19:15:00,
2013-03-05 13:17:00,28.5,24.3,30.05,NE,48,5.0,6.0,84,0.00,,,0.00,VWS V14.01,2013-03-05 19:17:00,
2013-03-05 13:20:00,28.4,23.3,30.06,NE,45,5.0,11.0,81,0.00,,---,0.00,VWS V14.01,2013-03-05 19:20:00,
2013-03-05 13:25:00,28.5,23.4,30.06,NE,45,4.0,7.0,81,0.00,,---,0.00,VWS V14.01,2013-03-05 19:25:00,
2013-03-05 13:27:00,29.0,24.8,30.05,NE,35,2.0,5.0,84,0.00,,,0.00,VWS V14.01,2013-03-05 19:27:00,
2013-03-05 13:30:00,28.8,24.0,30.06,NNE,22,3.0,6.0,82,0.00,,---,0.00,VWS V14.01,2013-03-05 19:30:00,
2013-03-05 13:35:00,28.8,23.7,30.06,NNE,22,5.0,12.0,81,0.00,,---,0.00,VWS V14.01,2013-03-05 19:35:00,
2013-03-05 13:37:00,28.7,24.2,30.05,NE,46,4.0,8.0,83,0.00,,,0.00,VWS V14.01,2013-03-05 19:37:00,
2013-03-05 13:40:00,28.5,23.1,30.06,NE,45,5.0,13.0,80,0.00,,---,0.00,VWS V14.01,2013-03-05 19:40:00,
2013-03-05 13:42:00,28.7,24.2,30.05,ENE,65,3.0,10.0,83,0.00,,,0.00,VWS V14.01,2013-03-05 19:42:00,
2013-03-05 13:45:00,28.8,23.7,30.07,NE,45,4.0,7.0,81,0.00,,---,0.00,VWS V14.01,2013-03-05 19:45:00,
2013-03-05 13:47:00,28.8,24.3,30.06,NNE,16,2.0,5.0,83,0.00,,,0.00,VWS V14.01,2013-03-05 19:47:00,
2013-03-05 13:50:00,29.3,24.2,30.07,NNE,22,3.0,7.0,81,0.00,,---,0.00,VWS V14.01,2013-03-05 19:50:00,
2013-03-05 13:52:00,29.3,24.8,30.06,NE,42,3.0,7.0,83,0.00,,,0.00,VWS V14.01,2013-03-05 19:52:00,
2013-03-05 13:55:00,29.3,23.9,30.07,NE,45,4.0,11.0,80,0.00,,---,0.00,VWS V14.01,2013-03-05 19:55:00,
2013-03-05 13:57:00,29.1,24.3,30.06,NE,38,2.0,7.0,82,0.00,,,0.00,VWS V14.01,2013-03-05 19:57:00,
2013-03-05 14:00:00,29.0,23.3,30.08,NE,45,5.0,10.0,79,0.00,,---,0.00,VWS V14.01,2013-03-05 20:00:00,
2013-03-05 14:05:00,28.7,23.0,30.08,NE,45,4.0,9.0,79,0.00,,---,0.00,VWS V14.01,2013-03-05 20:05:00,
2013-03-05 14:07:00,29.4,24.6,30.06,North,5,3.0,7.0,82,0.00,,,0.00,VWS V14.01,2013-03-05 20:07:00,
2013-03-05 14:10:00,28.7,23.0,30.08,NE,45,4.0,8.0,79,0.00,,---,0.00,VWS V14.01,2013-03-05 20:10:00,
2013-03-05 14:15:00,28.7,23.0,30.09,NNE,22,4.0,10.0,79,0.00,,---,0.00,VWS V14.01,2013-03-05 20:15:00,
2013-03-05 14:17:00,28.7,23.6,30.06,NE,40,6.0,15.0,81,0.00,,,0.00,VWS V14.01,2013-03-05 20:17:00,
2013-03-05 14:20:00,28.5,23.1,30.09,NNE,22,5.0,10.0,80,0.00,,---,0.00,VWS V14.01,2013-03-05 20:20:00,
2013-03-05 14:25:00,28.5,23.1,30.09,NE,45,4.0,9.0,80,0.00,,---,0.00,VWS V14.01,2013-03-05 20:25:00,
2013-03-05 14:27:00,28.5,23.4,30.06,NNE,15,4.0,6.0,81,0.00,,,0.00,VWS V14.01,2013-03-05 20:27:00,
2013-03-05 14:30:00,28.4,22.7,30.10,NE,45,4.0,10.0,79,0.00,,---,0.00,VWS V14.01,2013-03-05 20:30:00,
2013-03-05 14:35:00,28.5,22.8,30.10,NE,45,4.0,10.0,79,0.00,,---,0.00,VWS V14.01,2013-03-05 20:35:00,
2013-03-05 14:37:00,28.8,23.7,30.06,NE,40,5.0,12.0,81,0.00,,,0.00,VWS V14.01,2013-03-05 20:37:00,
2013-03-05 14:40:00,28.7,22.7,30.10,NNE,22,4.0,10.0,78,0.00,,---,0.00,VWS V14.01,2013-03-05 20:40:00,
2013-03-05 14:42:00,28.5,23.1,30.06,ENE,57,4.0,13.0,80,0.00,,,0.00,VWS V14.01,2013-03-05 20:42:00,
2013-03-05 14:45:00,28.4,22.4,30.11,NNE,22,5.0,11.0,78,0.00,,---,0.00,VWS V14.01,2013-03-05 20:45:00,
2013-03-05 14:47:00,28.8,23.7,30.07,NE,51,3.0,7.0,81,0.00,,,0.00,VWS V14.01,2013-03-05 20:47:00,
2013-03-05 14:50:00,28.2,22.2,30.11,NNE,22,6.0,13.0,78,0.00,,---,0.00,VWS V14.01,2013-03-05 20:50:00,
2013-03-05 14:52:00,29.3,24.2,30.07,NNE,23,0.0,7.0,81,0.00,,,0.00,VWS V14.01,2013-03-05 20:52:00,
2013-03-05 14:55:00,27.9,21.6,30.11,NNE,22,5.0,13.0,77,0.00,,---,0.00,VWS V14.01,2013-03-05 20:55:00,
2013-03-05 14:57:00,29.3,23.9,30.07,NE,39,9.0,10.0,80,0.00,,,0.00,VWS V14.01,2013-03-05 20:57:00,
2013-03-05 15:00:00,27.9,21.6,30.12,NNE,22,4.0,7.0,77,0.00,,---,0.00,VWS V14.01,2013-03-05 21:00:00,
2013-03-05 15:02:00,29.0,23.3,30.08,NE,37,6.0,10.0,79,0.00,,,0.00,VWS V14.01,2013-03-05 21:02:00,
2013-03-05 15:05:00,27.8,21.5,30.12,NNE,22,4.0,9.0,77,0.00,,---,0.00,VWS V14.01,2013-03-05 21:05:00,
2013-03-05 15:10:00,27.9,21.6,30.12,NNE,22,4.0,9.0,77,0.00,,---,0.00,VWS V14.01,2013-03-05 21:10:00,
2013-03-05 15:12:00,28.7,23.0,30.08,NE,44,4.0,7.0,79,0.00,,,0.00,VWS V14.01,2013-03-05 21:12:00,
2013-03-05 15:15:00,27.8,21.9,30.13,NE,45,4.0,9.0,78,0.00,,---,0.00,VWS V14.01,2013-03-05 21:15:00,
2013-03-05 15:20:00,27.6,21.6,30.13,NE,45,4.0,7.0,78,0.00,,---,0.00,VWS V14.01,2013-03-05 21:20:00,
2013-03-05 15:22:00,28.5,23.1,30.09,NNE,20,9.0,10.0,80,0.00,,,0.00,VWS V14.01,2013-03-05 21:22:00,
2013-03-05 15:25:00,27.8,21.9,30.13,NE,45,3.0,7.0,78,0.00,,---,0.00,VWS V14.01,2013-03-05 21:25:00,
2013-03-05 15:27:00,28.5,23.1,30.09,NE,43,2.0,9.0,80,0.00,,,0.00,VWS V14.01,2013-03-05 21:27:00,
2013-03-05 15:30:00,27.9,21.6,30.13,NE,45,2.0,7.0,77,0.00,,---,0.00,VWS V14.01,2013-03-05 21:30:00,
2013-03-05 15:32:00,28.4,22.7,30.10,NE,39,3.0,9.0,79,0.00,,,0.00,VWS V14.01,2013-03-05 21:32:00,
2013-03-05 15:35:00,27.8,21.2,30.13,NNE,22,4.0,7.0,76,0.00,,---,0.00,VWS V14.01,2013-03-05 21:35:00,
2013-03-05 15:37:00,28.5,22.8,30.10,NNW,334,6.0,10.0,79,0.00,,,0.00,VWS V14.01,2013-03-05 21:37:00,
2013-03-05 15:40:00,27.8,21.2,30.13,NNE,22,4.0,11.0,76,0.00,,---,0.00,VWS V14.01,2013-03-05 21:40:00,
2013-03-05 15:42:00,28.7,22.7,30.10,NNE,17,4.0,10.0,78,0.00,,,0.00,VWS V14.01,2013-03-05 21:42:00,
2013-03-05 15:45:00,27.6,21.0,30.14,NNE,22,5.0,13.0,76,0.00,,---,0.00,VWS V14.01,2013-03-05 21:45:00,
2013-03-05 15:50:00,27.6,21.0,30.14,NNE,22,4.0,9.0,76,0.00,,---,0.00,VWS V14.01,2013-03-05 21:50:00,
2013-03-05 15:52:00,28.2,22.2,30.11,NE,34,5.0,13.0,78,0.00,,,0.00,VWS V14.01,2013-03-05 21:52:00,
2013-03-05 15:55:00,27.6,21.0,30.14,NNE,22,3.0,10.0,76,0.00,,---,0.00,VWS V14.01,2013-03-05 21:55:00,
2013-03-05 15:57:00,27.9,21.6,30.11,NE,43,7.0,12.0,77,0.00,,,0.00,VWS V14.01,2013-03-05 21:57:00,
2013-03-05 16:00:00,27.6,21.0,30.15,NNE,22,4.0,7.0,76,0.00,,---,0.00,VWS V14.01,2013-03-05 22:00:00,
2013-03-05 16:02:00,27.9,21.6,30.12,NE,42,5.0,7.0,77,0.00,,OVC031,0.00,VWS V14.01,2013-03-05 22:02:00,
2013-03-05 16:05:00,27.8,21.2,30.15,NE,45,2.0,7.0,76,0.00,,---,0.00,VWS V14.01,2013-03-05 22:05:00,
2013-03-05 16:07:00,27.8,21.5,30.12,NNE,13,2.0,7.0,77,0.00,,OVC031,0.00,VWS V14.01,2013-03-05 22:07:00,
2013-03-05 16:10:00,27.8,21.2,30.15,NNE,22,4.0,8.0,76,0.00,,---,0.00,VWS V14.01,2013-03-05 22:10:00,
2013-03-05 16:12:00,27.9,21.6,30.12,NE,46,2.0,9.0,77,0.00,,OVC031,0.00,VWS V14.01,2013-03-05 22:12:00,
2013-03-05 16:15:00,27.8,21.5,30.15,North,0,3.0,9.0,77,0.00,,---,0.00,VWS V14.01,2013-03-05 22:15:00,
2013-03-05 16:17:00,27.8,21.9,30.13,NNE,30,3.0,9.0,78,0.00,,OVC031,0.00,VWS V14.01,2013-03-05 22:17:00,
2013-03-05 16:20:00,27.6,21.4,30.15,NNE,22,1.0,5.0,77,0.00,,---,0.00,VWS V14.01,2013-03-05 22:20:00,
2013-03-05 16:22:00,27.6,21.6,30.13,NE,41,3.0,7.0,78,0.00,,OVC031,0.00,VWS V14.01,2013-03-05 22:22:00,
2013-03-05 16:25:00,27.5,21.2,30.15,North,0,4.0,7.0,77,0.00,,---,0.00,VWS V14.01,2013-03-05 22:25:00,
2013-03-05 16:27:00,27.8,21.9,30.13,NE,47,2.0,7.0,78,0.00,,OVC031,0.00,VWS V14.01,2013-03-05 22:27:00,
2013-03-05 16:30:00,27.3,21.1,30.16,North,0,2.0,5.0,77,0.00,,---,0.00,VWS V14.01,2013-03-05 22:30:00,
2013-03-05 16:32:00,27.9,21.6,30.13,NNE,24,3.0,7.0,77,0.00,,OVC031,0.00,VWS V14.01,2013-03-05 22:32:00,
2013-03-05 16:35:00,27.2,21.0,30.16,North,0,2.0,6.0,77,0.00,,---,0.00,VWS V14.01,2013-03-05 22:35:00,
2013-03-05 16:37:00,27.8,21.2,30.13,NE,34,3.0,7.0,76,0.00,,OVC031,0.00,VWS V14.01,2013-03-05 22:37:00,
2013-03-05 16:40:00,27.2,21.3,30.16,North,0,2.0,5.0,78,0.00,,---,0.00,VWS V14.01,2013-03-05 22:40:00,
2013-03-05 16:45:00,27.0,21.1,30.16,North,0,3.0,6.0,78,0.00,,---,0.00,VWS V14.01,2013-03-05 22:45:00,
2013-03-05 16:47:00,27.6,21.0,30.14,NNE,24,5.0,11.0,76,0.00,,OVC031,0.00,VWS V14.01,2013-03-05 22:47:00,
2013-03-05 16:50:00,26.9,21.0,30.16,North,0,3.0,5.0,78,0.00,,---,0.00,VWS V14.01,2013-03-05 22:50:00,
2013-03-05 16:55:00,26.9,21.3,30.16,North,0,3.0,9.0,79,0.00,,---,0.00,VWS V14.01,2013-03-05 22:55:00,
2013-03-05 16:57:00,27.6,21.0,30.14,NNE,16,2.0,10.0,76,0.00,,OVC031,0.00,VWS V14.01,2013-03-05 22:57:00,
2013-03-05 17:00:00,26.7,21.1,30.17,North,0,3.0,7.0,79,0.00,,---,0.00,VWS V14.01,2013-03-05 23:00:00,
2013-03-05 17:02:00,27.6,21.0,30.15,NE,49,3.0,7.0,76,0.00,,OVC041,0.00,VWS V14.01,2013-03-05 23:02:00,
2013-03-05 17:05:00,26.4,21.1,30.17,North,0,2.0,5.0,80,0.00,,---,0.00,VWS V14.01,2013-03-05 23:05:00,
2013-03-05 17:10:00,26.3,21.0,30.17,North,0,2.0,9.0,80,0.00,,---,0.00,VWS V14.01,2013-03-05 23:10:00,
2013-03-05 17:12:00,27.8,21.2,30.15,NE,44,3.0,8.0,76,0.00,,OVC041,0.00,VWS V14.01,2013-03-05 23:12:00,
2013-03-05 17:15:00,26.1,21.1,30.18,North,0,3.0,5.0,81,0.00,,---,0.00,VWS V14.01,2013-03-05 23:15:00,
2013-03-05 17:20:00,26.1,21.1,30.18,North,0,1.0,5.0,81,0.00,,---,0.00,VWS V14.01,2013-03-05 23:20:00,
2013-03-05 17:22:00,27.6,21.4,30.15,North,11,0.0,6.0,77,0.00,,OVC041,0.00,VWS V14.01,2013-03-05 23:22:00,
2013-03-05 17:25:00,26.0,21.0,30.18,NNW,338,1.0,4.0,81,0.00,,---,0.00,VWS V14.01,2013-03-05 23:25:00,
2013-03-05 17:27:00,27.5,21.2,30.15,North,5,3.0,7.0,77,0.00,,OVC041,0.00,VWS V14.01,2013-03-05 23:27:00,
2013-03-05 17:30:00,26.0,21.3,30.19,NNW,338,2.0,6.0,82,0.00,,---,0.00,VWS V14.01,2013-03-05 23:30:00,
2013-03-05 17:35:00,26.0,21.3,30.19,NNW,338,3.0,6.0,82,0.00,,---,0.00,VWS V14.01,2013-03-05 23:35:00,
2013-03-05 17:37:00,27.2,21.0,30.16,NNE,19,4.0,6.0,77,0.00,,OVC041,0.00,VWS V14.01,2013-03-05 23:37:00,
2013-03-05 17:40:00,26.1,21.4,30.19,NNW,338,3.0,6.0,82,0.00,,---,0.00,VWS V14.01,2013-03-05 23:40:00,
2013-03-05 17:42:00,27.2,21.3,30.16,NNE,25,3.0,5.0,78,0.00,,OVC041,0.00,VWS V14.01,2013-03-05 23:42:00,
2013-03-05 17:45:00,26.1,21.6,30.19,NNW,338,2.0,5.0,83,0.00,,---,0.00,VWS V14.01,2013-03-05 23:45:00,
2013-03-05 17:50:00,26.0,21.6,30.19,NNW,338,2.0,5.0,83,0.00,,---,0.00,VWS V14.01,2013-03-05 23:50:00,
2013-03-05 17:52:00,26.9,21.0,30.16,North,11,6.0,6.0,78,0.00,,OVC041,0.00,VWS V14.01,2013-03-05 23:52:00,
2013-03-05 17:55:00,26.0,21.6,30.19,NW,315,2.0,6.0,83,0.00,,---,0.00,VWS V14.01,2013-03-05 23:55:00,
2013-03-05 17:57:00,26.9,21.3,30.16,North,355,2.0,9.0,79,0.00,,OVC041,0.00,VWS V14.01,2013-03-05 23:57:00,
2013-03-05 18:00:00,26.0,21.6,30.19,North,0,1.0,5.0,83,0.00,,---,0.00,VWS V14.01,2013-03-06 00:00:00,
2013-03-05 18:02:00,26.7,21.1,30.17,North,355,2.0,7.0,79,0.00,,BKN030,0.00,VWS V14.01,2013-03-06 00:02:00,
2013-03-05 18:05:00,26.1,21.6,30.19,NNW,338,2.0,5.0,83,0.00,,---,0.00,VWS V14.01,2013-03-06 00:05:00,
2013-03-05 18:07:00,26.4,21.1,30.17,North,355,3.0,5.0,80,0.00,,BKN030,0.00,VWS V14.01,2013-03-06 00:07:00,
2013-03-05 18:10:00,26.1,21.6,30.19,NNW,338,3.0,8.0,83,0.00,,---,0.00,VWS V14.01,2013-03-06 00:10:00,
2013-03-05 18:15:00,26.3,22.1,30.19,NNW,338,3.0,7.0,84,0.00,,---,0.00,VWS V14.01,2013-03-06 00:15:00,
2013-03-05 18:17:00,26.1,21.1,30.18,North,5,1.0,5.0,81,0.00,,BKN030,0.00,VWS V14.01,2013-03-06 00:17:00,
2013-03-05 18:20:00,26.4,22.2,30.19,North,0,4.0,11.0,84,0.00,,---,0.00,VWS V14.01,2013-03-06 00:20:00,
2013-03-05 18:22:00,26.1,21.1,30.18,North,355,1.0,5.0,81,0.00,,BKN030,0.00,VWS V14.01,2013-03-06 00:22:00,
2013-03-05 18:25:00,26.6,22.4,30.19,North,0,5.0,12.0,84,0.00,,---,0.00,VWS V14.01,2013-03-06 00:25:00,
2013-03-05 18:30:00,26.6,22.1,30.20,NNE,22,6.0,14.0,83,0.00,,---,0.00,VWS V14.01,2013-03-06 00:30:00,
2013-03-05 18:32:00,26.0,21.3,30.19,NW,321,0.0,6.0,82,0.00,,BKN030,0.00,VWS V14.01,2013-03-06 00:32:00,
2013-03-05 18:35:00,26.6,22.1,30.20,NNE,22,4.0,10.0,83,0.00,,---,0.00,VWS V14.01,2013-03-06 00:35:00,
2013-03-05 18:37:00,26.0,21.3,30.19,NNW,334,5.0,6.0,82,0.00,,BKN030,0.00,VWS V14.01,2013-03-06 00:37:00,
2013-03-05 18:40:00,26.4,22.0,30.20,NE,45,5.0,10.0,83,0.00,,---,0.00,VWS V14.01,2013-03-06 00:40:00,
2013-03-05 18:42:00,26.1,21.4,30.19,NNW,338,2.0,6.0,82,0.00,,BKN030,0.00,VWS V14.01,2013-03-06 00:42:00,
2013-03-05 18:45:00,26.4,22.0,30.19,NNE,22,4.0,7.0,83,0.00,,---,0.00,VWS V14.01,2013-03-06 00:45:00,
2013-03-05 18:47:00,26.1,21.6,30.19,NNW,344,3.0,5.0,83,0.00,,OVC047,0.00,VWS V14.01,2013-03-06 00:47:00,
2013-03-05 18:50:00,26.4,22.0,30.19,NNE,22,4.0,14.0,83,0.00,,---,0.00,VWS V14.01,2013-03-06 00:50:00,
2013-03-05 18:52:00,26.0,21.6,30.19,NW,323,0.0,5.0,83,0.00,,OVC047,0.00,VWS V14.01,2013-03-06 00:52:00,
2013-03-05 18:55:00,26.4,21.7,30.19,NE,45,4.0,9.0,82,0.00,,---,0.00,VWS V14.01,2013-03-06 00:55:00,
2013-03-05 19:00:00,26.3,21.6,30.21,NNE,22,4.0,11.0,82,0.00,,---,0.00,VWS V14.01,2013-03-06 01:00:00,
2013-03-05 19:02:00,26.0,21.6,30.19,NNW,334,2.0,4.0,83,0.00,,,0.00,VWS V14.01,2013-03-06 01:02:00,
2013-03-05 19:05:00,26.3,21.3,30.21,NNE,22,5.0,11.0,81,0.00,,---,0.00,VWS V14.01,2013-03-06 01:05:00,
2013-03-05 19:07:00,26.1,21.6,30.19,North,360,1.0,5.0,83,0.00,,,0.00,VWS V14.01,2013-03-06 01:07:00,
2013-03-05 19:10:00,26.1,21.1,30.21,NE,45,4.0,16.0,81,0.00,,---,0.00,VWS V14.01,2013-03-06 01:10:00,
2013-03-05 19:15:00,25.8,20.5,30.21,NNE,22,4.0,10.0,80,0.00,,---,0.00,VWS V14.01,2013-03-06 01:15:00,
2013-03-05 19:17:00,26.3,22.1,30.19,NNW,344,5.0,7.0,84,0.00,,,0.00,VWS V14.01,2013-03-06 01:17:00,
2013-03-05 19:20:00,25.7,20.4,30.21,NNE,22,4.0,7.0,80,0.00,,---,0.00,VWS V14.01,2013-03-06 01:20:00,
2013-03-05 19:22:00,26.4,22.2,30.19,North,5,3.0,11.0,84,0.00,,,0.00,VWS V14.01,2013-03-06 01:22:00,
2013-03-05 19:25:00,25.7,20.4,30.21,North,0,4.0,12.0,80,0.00,,---,0.00,VWS V14.01,2013-03-06 01:25:00,
2013-03-05 19:30:00,25.4,20.1,30.22,NNE,22,5.0,12.0,80,0.00,,---,0.00,VWS V14.01,2013-03-06 01:30:00,
2013-03-05 19:32:00,26.6,22.1,30.20,NNE,13,7.0,12.0,83,0.00,,,0.00,VWS V14.01,2013-03-06 01:32:00,
2013-03-05 19:35:00,25.1,19.8,30.22,North,0,4.0,8.0,80,0.00,,---,0.00,VWS V14.01,2013-03-06 01:35:00,
2013-03-05 19:37:00,26.6,22.1,30.20,NNE,18,3.0,10.0,83,0.00,,,0.00,VWS V14.01,2013-03-06 01:37:00,
2013-03-05 19:40:00,25.0,19.7,30.22,North,0,4.0,6.0,80,0.00,,---,0.00,VWS V14.01,2013-03-06 01:40:00,
2013-03-05 19:42:00,26.4,22.0,30.20,NNE,15,2.0,9.0,83,0.00,,,0.00,VWS V14.01,2013-03-06 01:42:00,
2013-03-05 19:45:00,24.5,19.2,30.23,North,0,4.0,10.0,80,0.00,,---,0.00,VWS V14.01,2013-03-06 01:45:00,
2013-03-05 19:50:00,24.2,18.9,30.23,NNE,22,4.0,9.0,80,0.00,,---,0.00,VWS V14.01,2013-03-06 01:50:00,
2013-03-05 19:52:00,26.4,22.0,30.19,NNE,18,8.0,13.0,83,0.00,,OVC027,0.00,VWS V14.01,2013-03-06 01:52:00,
2013-03-05 19:55:00,23.9,18.9,30.23,North,0,4.0,10.0,81,0.00,,---,0.00,VWS V14.01,2013-03-06 01:55:00,
2013-03-05 19:57:00,26.4,21.7,30.19,NNE,28,3.0,9.0,82,0.00,,OVC027,0.00,VWS V14.01,2013-03-06 01:57:00,
2013-03-05 20:00:00,23.8,18.8,30.24,North,0,3.0,6.0,81,0.00,,---,0.00,VWS V14.01,2013-03-06 02:00:00,
2013-03-05 20:02:00,26.3,21.6,30.21,NE,44,4.0,11.0,82,0.00,,OVC025,0.00,VWS V14.01,2013-03-06 02:02:00,
2013-03-05 20:05:00,23.5,18.5,30.24,North,0,2.0,6.0,81,0.00,,---,0.00,VWS V14.01,2013-03-06 02:05:00,
2013-03-05 20:07:00,26.3,21.3,30.21,NE,34,2.0,11.0,81,0.00,,OVC025,0.00,VWS V14.01,2013-03-06 02:07:00,
2013-03-05 20:10:00,23.2,18.2,30.24,NNW,338,3.0,7.0,81,0.00,,---,0.00,VWS V14.01,2013-03-06 02:10:00,
2013-03-05 20:15:00,22.9,18.0,30.24,North,0,3.0,7.0,81,0.00,,---,0.00,VWS V14.01,2013-03-06 02:15:00,
2013-03-05 20:17:00,25.8,20.5,30.21,North,5,5.0,10.0,80,0.00,,OVC025,0.00,VWS V14.01,2013-03-06 02:17:00,
2013-03-05 20:20:00,22.7,18.0,30.24,North,0,3.0,8.0,82,0.00,,---,0.00,VWS V14.01,2013-03-06 02:20:00,
2013-03-05 20:22:00,25.7,20.4,30.21,NE,44,3.0,7.0,80,0.00,,OVC025,0.00,VWS V14.01,2013-03-06 02:22:00,
2013-03-05 20:25:00,22.5,17.9,30.24,North,0,3.0,7.0,82,0.00,,---,0.00,VWS V14.01,2013-03-06 02:25:00,
2013-03-05 20:27:00,25.7,20.4,30.21,North,355,5.0,10.0,80,0.00,,OVC025,0.00,VWS V14.01,2013-03-06 02:27:00,
2013-03-05 20:30:00,22.4,17.8,30.25,North,0,3.0,6.0,82,0.00,,---,0.00,VWS V14.01,2013-03-06 02:30:00,
2013-03-05 20:32:00,25.4,20.1,30.22,ENE,71,4.0,12.0,80,0.00,,OVC025,0.00,VWS V14.01,2013-03-06 02:32:00,
2013-03-05 20:35:00,22.2,17.5,30.25,North,0,4.0,7.0,82,0.00,,---,0.00,VWS V14.01,2013-03-06 02:35:00,
2013-03-05 20:37:00,25.1,19.8,30.22,NNE,23,5.0,8.0,80,0.00,,OVC025,0.00,VWS V14.01,2013-03-06 02:37:00,
2013-03-05 20:40:00,22.2,17.5,30.25,North,0,4.0,7.0,82,0.00,,---,0.00,VWS V14.01,2013-03-06 02:40:00,
2013-03-05 20:42:00,25.0,19.7,30.22,North,10,3.0,6.0,80,0.00,,OVC025,0.00,VWS V14.01,2013-03-06 02:42:00,
2013-03-05 20:45:00,22.2,17.5,30.25,North,0,3.0,9.0,82,0.00,,---,0.00,VWS V14.01,2013-03-06 02:45:00,
2013-03-05 20:50:00,22.2,17.5,30.25,NNE,22,3.0,7.0,82,0.00,,---,0.00,VWS V14.01,2013-03-06 02:50:00,
2013-03-05 20:52:00,24.2,18.9,30.23,North,5,6.0,9.0,80,0.00,,OVC025,0.00,VWS V14.01,2013-03-06 02:52:00,
2013-03-05 20:55:00,22.2,17.3,30.25,NNE,22,3.0,7.0,81,0.00,,---,0.00,VWS V14.01,2013-03-06 02:55:00,
2013-03-05 21:00:00,22.2,17.3,30.26,NNE,22,3.0,6.0,81,0.00,,---,0.00,VWS V14.01,2013-03-06 03:00:00,
2013-03-05 21:02:00,23.8,18.8,30.24,North,5,3.0,10.0,81,0.00,,OVC015,0.00,VWS V14.01,2013-03-06 03:02:00,
2013-03-05 21:05:00,21.9,16.7,30.26,North,0,3.0,6.0,80,0.00,,---,0.00,VWS V14.01,2013-03-06 03:05:00,
2013-03-05 21:07:00,23.5,18.5,30.24,North,355,0.0,6.0,81,0.00,,OVC015,0.00,VWS V14.01,2013-03-06 03:07:00,
2013-03-05 21:10:00,21.8,16.9,30.26,North,0,2.0,6.0,81,0.00,,---,0.00,VWS V14.01,2013-03-06 03:10:00,
2013-03-05 21:12:00,23.2,18.2,30.24,NNW,344,3.0,6.0,81,0.00,,OVC015,0.00,VWS V14.01,2013-03-06 03:12:00,
2013-03-05 21:15:00,21.8,16.9,30.26,NNE,22,3.0,7.0,81,0.00,,---,0.00,VWS V14.01,2013-03-06 03:15:00,
2013-03-05 21:17:00,22.9,18.0,30.24,North,350,2.0,7.0,81,0.00,,OVC015,0.00,VWS V14.01,2013-03-06 03:17:00,
2013-03-05 21:20:00,21.8,16.9,30.26,NNE,22,2.0,6.0,81,0.00,,---,0.00,VWS V14.01,2013-03-06 03:20:00,
2013-03-05 21:25:00,21.9,17.0,30.26,North,0,2.0,5.0,81,0.00,,---,0.00,VWS V14.01,2013-03-06 03:25:00,
2013-03-05 21:27:00,22.5,17.9,30.24,North,9,2.0,7.0,82,0.00,,OVC015,0.00,VWS V14.01,2013-03-06 03:27:00,
2013-03-05 21:30:00,21.9,17.0,30.26,North,0,3.0,6.0,81,0.00,,---,0.00,VWS V14.01,2013-03-06 03:30:00,
2013-03-05 21:32:00,22.4,17.8,30.25,North,350,3.0,6.0,82,0.00,,SCT015,0.00,VWS V14.01,2013-03-06 03:32:00,
2013-03-05 21:35:00,22.1,17.2,30.26,North,0,2.0,5.0,81,0.00,,---,0.00,VWS V14.01,2013-03-06 03:35:00,
2013-03-05 21:37:00,22.2,17.5,30.25,North,5,2.0,7.0,82,0.00,,SCT015,0.00,VWS V14.01,2013-03-06 03:37:00,
2013-03-05 21:40:00,22.2,17.3,30.26,North,0,4.0,7.0,81,0.00,,---,0.00,VWS V14.01,2013-03-06 03:40:00,
2013-03-05 21:45:00,22.4,17.2,30.26,North,0,3.0,6.0,80,0.00,,---,0.00,VWS V14.01,2013-03-06 03:45:00,
2013-03-05 21:47:00,22.2,17.5,30.25,North,5,8.0,9.0,82,0.00,,SCT015,0.00,VWS V14.01,2013-03-06 03:47:00,
2013-03-05 21:50:00,22.4,17.2,30.26,NNE,22,3.0,7.0,80,0.00,,---,0.00,VWS V14.01,2013-03-06 03:50:00,
2013-03-05 21:52:00,22.2,17.5,30.25,North,5,2.0,8.0,82,0.00,,SCT015,0.00,VWS V14.01,2013-03-06 03:52:00,
2013-03-05 21:55:00,22.5,17.3,30.26,NNE,22,3.0,7.0,80,0.00,,---,0.00,VWS V14.01,2013-03-06 03:55:00,
2013-03-05 22:00:00,22.5,17.3,30.27,North,0,3.0,7.0,80,0.00,,---,0.00,VWS V14.01,2013-03-06 04:00:00,
2013-03-05 22:02:00,22.2,17.3,30.26,North,355,2.0,6.0,81,0.00,,CLR,0.00,VWS V14.01,2013-03-06 04:02:00,
2013-03-05 22:05:00,22.7,17.5,30.27,North,0,3.0,6.0,80,0.00,,---,0.00,VWS V14.01,2013-03-06 04:05:00,
2013-03-05 22:07:00,21.9,16.7,30.26,NNE,17,2.0,6.0,80,0.00,,CLR,0.00,VWS V14.01,2013-03-06 04:07:00,
2013-03-05 22:10:00,22.7,17.5,30.27,North,0,2.0,4.0,80,0.00,,---,0.00,VWS V14.01,2013-03-06 04:10:00,
2013-03-05 22:12:00,21.8,16.9,30.26,North,5,3.0,6.0,81,0.00,,CLR,0.00,VWS V14.01,2013-03-06 04:12:00,
2013-03-05 22:15:00,22.9,17.7,30.27,NNE,22,2.0,5.0,80,0.00,,---,0.00,VWS V14.01,2013-03-06 04:15:00,
2013-03-05 22:17:00,21.8,16.9,30.26,North,11,5.0,7.0,81,0.00,,CLR,0.00,VWS V14.01,2013-03-06 04:17:00,
2013-03-05 22:20:00,22.9,17.7,30.27,NNE,22,2.0,4.0,80,0.00,,---,0.00,VWS V14.01,2013-03-06 04:20:00,
2013-03-05 22:22:00,21.8,16.9,30.26,NNE,29,2.0,6.0,81,0.00,,CLR,0.00,VWS V14.01,2013-03-06 04:22:00,
2013-03-05 22:25:00,22.9,17.4,30.27,NE,45,2.0,5.0,79,0.00,,---,0.00,VWS V14.01,2013-03-06 04:25:00,
2013-03-05 22:27:00,21.9,17.0,30.26,North,10,1.0,5.0,81,0.00,,CLR,0.00,VWS V14.01,2013-03-06 04:27:00,
2013-03-05 22:30:00,22.9,17.4,30.27,NNE,22,1.0,5.0,79,0.00,,---,0.00,VWS V14.01,2013-03-06 04:30:00,
2013-03-05 22:35:00,22.9,17.4,30.27,NNE,22,1.0,3.0,79,0.00,,---,0.00,VWS V14.01,2013-03-06 04:35:00,
2013-03-05 22:37:00,22.1,17.2,30.26,NNE,20,3.0,5.0,81,0.00,,CLR,0.00,VWS V14.01,2013-03-06 04:37:00,
2013-03-05 22:40:00,22.9,17.4,30.27,NNE,22,0.0,2.0,79,0.00,,---,0.00,VWS V14.01,2013-03-06 04:40:00,
2013-03-05 22:42:00,22.2,17.3,30.26,NNE,19,5.0,7.0,81,0.00,,CLR,0.00,VWS V14.01,2013-03-06 04:42:00,
2013-03-05 22:45:00,22.9,17.7,30.27,NNE,22,0.0,0.0,80,0.00,,---,0.00,VWS V14.01,2013-03-06 04:45:00,
2013-03-05 22:50:00,22.9,17.7,30.27,NNE,22,0.0,0.0,80,0.00,,---,0.00,VWS V14.01,2013-03-06 04:50:00,
2013-03-05 22:52:00,22.4,17.2,30.26,North,5,4.0,7.0,80,0.00,,CLR,0.00,VWS V14.01,2013-03-06 04:52:00,
2013-03-05 22:55:00,22.9,17.7,30.27,NNE,22,0.0,0.0,80,0.00,,---,0.00,VWS V14.01,2013-03-06 04:55:00,
2013-03-05 22:57:00,22.5,17.3,30.26,NE,36,3.0,7.0,80,0.00,,CLR,0.00,VWS V14.01,2013-03-06 04:57:00,
2013-03-05 23:00:00,22.9,17.7,30.27,NNE,22,0.0,0.0,80,0.00,,---,0.00,VWS V14.01,2013-03-06 05:00:00,
2013-03-05 23:02:00,22.5,17.3,30.27,North,349,5.0,7.0,80,0.00,,OVC033,0.00,VWS V14.01,2013-03-06 05:02:00,
2013-03-05 23:05:00,22.9,17.7,30.27,NNE,22,0.0,0.0,80,0.00,,---,0.00,VWS V14.01,2013-03-06 05:05:00,
2013-03-05 23:07:00,22.7,17.5,30.27,North,360,2.0,6.0,80,0.00,,OVC033,0.00,VWS V14.01,2013-03-06 05:07:00,
2013-03-05 23:10:00,22.9,17.7,30.27,NNE,22,0.0,0.0,80,0.00,,---,0.00,VWS V14.01,2013-03-06 05:10:00,
2013-03-05 23:12:00,22.7,17.5,30.27,North,11,4.0,4.0,80,0.00,,OVC033,0.00,VWS V14.01,2013-03-06 05:12:00,
2013-03-05 23:15:00,22.9,17.7,30.27,NNE,22,0.0,0.0,80,0.00,,---,0.00,VWS V14.01,2013-03-06 05:15:00,
2013-03-05 23:17:00,22.9,17.7,30.27,NNE,19,0.0,5.0,80,0.00,,OVC033,0.00,VWS V14.01,2013-03-06 05:17:00,
2013-03-05 23:20:00,22.9,17.7,30.27,NNE,22,0.0,0.0,80,0.00,,---,0.00,VWS V14.01,2013-03-06 05:20:00,
2013-03-05 23:22:00,22.9,17.7,30.27,NE,43,2.0,4.0,80,0.00,,OVC033,0.00,VWS V14.01,2013-03-06 05:22:00,
2013-03-05 23:25:00,22.9,17.7,30.27,North,0,1.0,3.0,80,0.00,,---,0.00,VWS V14.01,2013-03-06 05:25:00,
2013-03-05 23:27:00,22.9,17.4,30.27,NNE,17,3.0,5.0,79,0.00,,OVC033,0.00,VWS V14.01,2013-03-06 05:27:00,
2013-03-05 23:30:00,23.0,18.0,30.28,North,0,1.0,4.0,81,0.00,,---,0.00,VWS V14.01,2013-03-06 05:30:00,
2013-03-05 23:32:00,22.9,17.4,30.27,NNE,15,0.0,5.0,79,0.00,,OVC029,0.00,VWS V14.01,2013-03-06 05:32:00,
2013-03-05 23:35:00,23.0,18.0,30.28,North,0,0.0,2.0,81,0.00,,---,0.00,VWS V14.01,2013-03-06 05:35:00,
2013-03-05 23:37:00,22.9,17.4,30.27,NNE,31,0.0,3.0,79,0.00,,OVC029,0.00,VWS V14.01,2013-03-06 05:37:00,
2013-03-05 23:40:00,23.0,18.0,30.28,NNW,338,0.0,2.0,81,0.00,,---,0.00,VWS V14.01,2013-03-06 05:40:00,
2013-03-05 23:42:00,22.9,17.4,30.27,NNE,14,0.0,2.0,79,0.00,,OVC029,0.00,VWS V14.01,2013-03-06 05:42:00,
2013-03-05 23:45:00,23.2,18.2,30.29,North,0,1.0,5.0,81,0.00,,---,0.00,VWS V14.01,2013-03-06 05:45:00,
2013-03-05 23:47:00,22.9,17.7,30.27,North,360,0.0,0.0,80,0.00,,OVC029,0.00,VWS V14.01,2013-03-06 05:47:00,
2013-03-05 23:50:00,23.2,18.2,30.29,NNW,338,1.0,5.0,81,0.00,,---,0.00,VWS V14.01,2013-03-06 05:50:00,
2013-03-05 23:52:00,22.9,17.7,30.27,North,5,0.0,0.0,80,0.00,,OVC029,0.00,VWS V14.01,2013-03-06 05:52:00,
2013-03-05 23:55:00,23.2,18.2,30.29,NNW,338,1.0,4.0,81,0.00,,---,0.00,VWS V14.01,2013-03-06 05:55:00,
2013-03-05 23:57:00,22.9,17.7,30.27,North,5,0.0,0.0,80,0.00,,OVC029,0.00,VWS V14.01,2013-03-06 05:57:00,